Flag for Canada Weather past 2 weeks in Sidney, British Columbia, Canada

Now
63 °F

Partly sunny.


Feels Like: 63 °F
Forecast: 55 / 68 °F
Wind: 16 mph from West

Location: Victoria Int. Airportb. C.

Current Time: Jul 24, 2014 at 9:15:12 PM

Latest Report: Jul 24, 2014 at 8:00 PM


Visibility: 30 mi

Pressure: 30.16 "Hg

Humidity: 64%

Dew point: 50 °F

Location of SidneyLocation

Historic Weather in Sidney — Graph

°F

Sidney temperature yesterday

Maximum temperature yesterday: 61 °F (at 10:00 AM)
Minimum temperature yesterday: 52 °F (at 3:00 AM)
Average temperature yesterday: 57 °F

Past Weeks' High & Low Weather Summary

 TemperatureHumidityPressure
High84 °F (Jul 13, 3:00 PM)94% (Jul 10, 4:00 AM)30.18 "Hg (Jul 10, 4:00 AM)
Low52 °F (Jul 15, 5:00 AM)40% (Jul 13, 3:00 PM)29.90 "Hg (Jul 16, 9:00 PM)
Average62 °F73%30.01 "Hg
* Reported Jul 9 8:00 PM — Jul 24 8:00 PM, Sidney, Weather by CustomWeather, © 2014

Note: Actual official high and low records may vary slightly from our data, if they occured in-between our weather recording intervals... More about our weather records

Advertising

Sidney weather history for previous 24 hours

 ConditionsComfort  
Time TempWeatherWind HumidityBarometerVisibility
8:00 PM
Jul 24
63 °FPartly sunny.16 mph64%30.16 "Hg30 mi
7:00 PM64 °FPassing clouds.17 mph56%30.16 "Hg30 mi
6:00 PM66 °FPassing clouds.16 mph52%30.17 "Hg30 mi
5:00 PM68 °FPassing clouds.17 mph49%30.17 "Hg30 mi
4:00 PM68 °FScattered clouds.20 mph49%30.18 "Hg30 mi
3:00 PM68 °FPartly sunny.18 mph49%30.16 "Hg30 mi
2:00 PM70 °FPassing clouds.17 mph50%30.15 "Hg30 mi
1:00 PM70 °FPassing clouds.20 mph53%30.14 "Hg30 mi
12:00 PM68 °FScattered clouds.16 mph56%30.12 "Hg30 mi
11:00 AM66 °FScattered clouds.15 mph60%30.10 "Hg30 mi
10:00 AM63 °FScattered clouds.6 mph73%30.10 "Hg30 mi
9:00 AM59 °FPartly sunny.9 mph82%30.08 "Hg30 mi
8:00 AM57 °FPartly sunny.5 mph88%30.06 "Hg30 mi
7:00 AM55 °FLight rain. Partly sunny.5 mph94%30.05 "Hg12 mi
6:00 AM55 °FLight rain. Fog.5 mph94%30.04 "Hg6 mi
5:00 AM55 °FLight rain. Fog.2 mph94%30.04 "Hg6 mi
4:00 AM55 °FLight rain. Mostly cloudy.2 mph94%30.03 "Hg10 mi
3:00 AM55 °FLight rain. Overcast.No wind94%30.03 "Hg12 mi
2:00 AM55 °FMostly cloudy.2 mph94%30.02 "Hg20 mi
1:00 AM55 °FMostly cloudy.2 mph94%30.03 "Hg20 mi
12:00 AM55 °FOvercast.3 mph94%30.02 "Hg30 mi
11:00 PM
Jul 23
57 °FLow clouds.7 mph88%30.02 "Hg30 mi
10:00 PM57 °FLow clouds.12 mph94%30.02 "Hg30 mi
9:00 PM55 °FPartly sunny.7 mph94%30.02 "Hg30 mi
Weather by CustomWeather, © 2014

See weather overviewHow to use our weather pages